[[{"header":{"parameterUnit":"m.s-1","parameterCategory":1,"la1":30.2991,"la2":30.254,"lo1":-89.0895,"lo2":-89.0444,"dy":0.0017,"dx":0.0017,"nx":28,"ny":28,"refTime":"2024-06-02T21:00:00:Z","depth":0,"parameterNumber":2,"parameterNumberName":"U-component_of_WINDS"},"data":[0,0,0,0,0,0,0,0,0,0,0,0,0,0,0,0,0,0,0,0,0,0,0,0,0,0,0,0,0,0,0,0,0,0,0,0,0,0,0,0,0,0,0,0,0,0,0,0,0,0,0,0,0,0,0,0,0,0,-0.6879,-0.6879,0,-0.6865,-0.6865,-0.6865,-0.6843,-0.6843,-0.6842,-0.6842,-0.6829,-0.6829,-0.6829,0,0,0,0,0,0,0,0,0,0,0,0,0,-0.6889,-0.6889,-0.6879,-0.6879,-0.6879,-0.6865,-0.6865,-0.6865,-0.6843,-0.6843,-0.6842,-0.6842,-0.6829,-0.6829,-0.6829,0,0,0,0,0,0,0,0,0,0,0,0,0,-0.6881,-0.6889,-0.6879,-0.6866,-0.6865,-0.6865,-0.6865,-0.6865,-0.6843,-0.6843,-0.6842,-0.6841,-0.6829,-0.6829,-0.6829,-0.6841,0,0,-0.6829,-0.6829,0,0,0,0,0,0,0,0,-0.6882,-0.6881,-0.6869,-0.6867,-0.6866,-0.6855,-0.6864,-0.6857,-0.6843,-0.6852,-0.6842,-0.6841,-0.6838,-0.6837,-0.6836,-0.684,-0.684,-0.6829,-0.6829,-0.6829,-0.6829,0,0,0,0,0,0,0,-0.6882,-0.6881,-0.6874,-0.6868,-0.6867,-0.6862,-0.686,-0.6862,-0.6849,-0.6851,-0.6849,-0.6848,-0.6837,-0.6836,-0.6836,-0.684,-0.6829,-0.6829,-0.6829,-0.6829,-0.6854,-0.6855,0,0,0,0,0,0,-0.6885,-0.6882,-0.6874,-0.6873,-0.6872,-0.6862,-0.686,-0.6859,-0.6848,-0.6846,-0.6848,-0.6847,-0.6836,-0.6836,-0.6835,-0.6849,-0.6829,-0.6829,-0.6829,-0.6853,-0.6854,-0.6855,0,0,0,0,0,0,-0.6885,-0.6884,-0.6875,-0.6877,-0.6876,-0.6863,-0.6862,-0.6859,-0.6858,-0.6846,-0.6844,-0.6849,-0.6836,-0.6835,-0.684,-0.6848,-0.6829,-0.6829,-0.6853,-0.6854,-0.6855,-0.6877,0,0,0,0,0,0,-0.6885,-0.6884,-0.6888,-0.6877,-0.6876,-0.6879,-0.6862,-0.686,-0.6858,-0.6856,-0.6847,-0.6845,-0.6835,-0.684,-0.684,-0.6848,-0.6829,-0.6852,-0.6853,-0.6854,-0.6875,-0.6879,-0.6881,0,0,0,0,0,-0.6886,-0.6895,-0.6889,-0.6888,-0.688,-0.688,-0.6879,-0.6867,-0.6859,-0.6863,-0.6856,-0.6845,-0.6847,-0.6841,-0.684,-0.6849,-0.6851,-0.6853,-0.6854,-0.6874,-0.6878,-0.6881,0,0,0,0,0,0,-0.6908,-0.6894,-0.6886,-0.6892,-0.6887,-0.6876,-0.6881,-0.6872,-0.6869,-0.6868,-0.6854,-0.6852,-0.6859,-0.6854,-0.6847,-0.686,-0.6848,-0.6849,-0.6863,-0.6867,-0.6869,-0.6871,-0.6829,0,0,0,0,0,-0.6913,-0.6914,-0.6901,-0.6908,-0.6906,-0.6894,-0.6893,-0.6885,-0.688,-0.6877,-0.687,-0.6866,-0.6866,-0.6866,-0.6865,-0.6875,-0.6873,-0.688,-0.6883,-0.6886,-0.6887,-0.6893,-0.6896,-0.686,-0.686,-0.686,0,0,-0.6925,-0.6917,-0.6918,-0.6912,-0.6908,-0.6909,-0.6892,-0.6894,-0.6895,-0.6878,-0.6882,-0.6877,-0.6871,-0.6878,-0.6881,-0.6875,-0.6897,-0.6888,-0.689,-0.689,-0.6895,-0.6898,-0.6901,-0.6861,-0.686,-0.686,0,0,-0.6947,-0.6941,-0.6946,-0.6942,-0.6934,-0.6926,-0.6928,-0.6918,-0.6914,-0.6917,-0.6905,-0.6906,-0.6906,-0.6902,-0.69,-0.6922,-0.6912,-0.6922,-0.6937,-0.6943,-0.6946,-0.6948,-0.6957,-0.696,-0.6923,-0.6923,-0.6923,0,-0.6962,-0.6963,-0.695,-0.6953,-0.6951,-0.6935,-0.6941,-0.6937,-0.693,-0.693,-0.6922,-0.6922,-0.6917,-0.6924,-0.6929,-0.6928,-0.693,-0.6923,-0.6946,-0.6949,-0.6951,-0.6959,-0.6962,-0.6925,-0.6924,-0.6924,-0.6924,0,-0.6983,-0.6984,-0.6989,-0.6983,-0.6981,-0.6986,-0.6974,-0.6974,-0.6966,-0.6959,-0.6964,-0.6957,-0.6955,-0.6956,-0.6948,-0.6962,-0.6958,-0.6949,-0.6936,-0.6956,-0.6963,-0.6966,-0.6926,-0.6926,-0.6926,-0.6925,0,0,-0.7019,-0.7005,-0.7007,-0.7004,-0.6995,-0.6996,-0.7,-0.6997,-0.6998,-0.6994,-0.6998,-0.6998,-0.699,-0.6988,-0.6979,-0.6984,-0.7002,-0.6974,-0.6974,-0.698,-0.7018,-0.7025,-0.7029,-0.6996,-0.6996,-0.6997,-0.7019,0,-0.7039,-0.7045,-0.7033,-0.7042,-0.7043,-0.7028,-0.7031,-0.7027,-0.702,-0.7021,-0.7014,-0.7015,-0.7003,-0.7002,-0.7006,-0.6999,-0.701,-0.6997,-0.7,-0.7,-0.7002,-0.7033,-0.704,-0.7061,-0.7021,-0.7022,-0.7022,0,-0.7064,-0.7061,-0.7069,-0.7061,-0.7061,-0.7064,-0.7061,-0.7061,-0.7056,-0.7051,-0.7049,-0.7039,-0.7043,-0.7031,-0.7036,-0.7028,-0.7029,-0.7025,-0.7026,-0.7026,-0.7012,-0.7034,-0.7068,-0.7071,-0.7026,-0.7026,-0.7025,0,-0.709,-0.7088,-0.7093,-0.7091,-0.708,-0.7083,-0.7079,-0.7073,-0.7073,-0.707,-0.707,-0.7068,-0.7067,-0.7067,-0.7057,-0.7048,-0.7064,-0.705,-0.7061,-0.7061,-0.7065,-0.7065,-0.71,-0.7064,-0.7064,-0.7064,-0.7064,0,-0.7115,-0.7121,-0.7105,-0.7108,-0.7114,-0.7101,-0.7108,-0.7103,-0.7098,-0.71,-0.7087,-0.709,-0.7076,-0.7078,-0.707,-0.7076,-0.7076,-0.7073,-0.7071,-0.7074,-0.7075,-0.7074,-0.7073,-0.7065,-0.7065,-0.7065,-0.7065,0,-0.7145,-0.7134,-0.7139,-0.7129,-0.7126,-0.7132,-0.7123,-0.7126,-0.7119,-0.7122,-0.7122,-0.7111,-0.7112,-0.7102,-0.7101,-0.7096,-0.7106,-0.7101,-0.7108,-0.7107,-0.7118,-0.7117,-0.7154,-0.7159,-0.712,-0.712,-0.7121,0,-0.7162,-0.7166,-0.7156,-0.7156,-0.7153,-0.7154,-0.7153,-0.7141,-0.7141,-0.7135,-0.7139,-0.7139,-0.7138,-0.714,-0.7133,-0.7132,-0.7128,-0.714,-0.7127,-0.7131,-0.7129,-0.7129,-0.7129,-0.7143,-0.7144,-0.7144,-0.7145,0,-0.7193,-0.7187,-0.7187,-0.7184,-0.7184,-0.7181,-0.7178,-0.7179,-0.7166,-0.7167,-0.7167,-0.7167,-0.7166,-0.7166,-0.7164,-0.716,-0.7151,-0.7149,-0.7151,-0.7155,-0.7159,-0.7158,-0.7116,-0.7148,-0.7148,-0.7147,-0.7147,-0.7147,-0.7217,-0.7221,-0.7214,-0.7214,-0.721,-0.7208,-0.721,-0.7203,-0.7203,-0.7201,-0.7194,-0.7196,-0.7191,-0.7187,-0.7185,-0.7187,-0.718,-0.7184,-0.7185,-0.7186,-0.7188,-0.7158,-0.7186,-0.7186,-0.7186,-0.7186,-0.7186,0,-0.7248,-0.7244,-0.7243,-0.7239,-0.7239,-0.7229,-0.7226,-0.7226,-0.7228,-0.7224,-0.7224,-0.7225,-0.7225,-0.7217,-0.7217,-0.722,-0.7216,-0.722,-0.722,-0.722,-0.7194,-0.7192,-0.7224,-0.7224,-0.7224,-0.7224,-0.7224,-0.7224,-0.7265,-0.727,-0.7264,-0.7268,-0.7263,-0.7264,-0.7263,-0.7261,-0.7258,-0.7259,-0.7259,-0.7254,-0.7249,-0.7248,-0.7248,-0.7246,-0.7246,-0.7253,-0.7249,-0.7225,-0.7222,-0.7218,-0.7216,-0.7253,-0.7253,-0.7275,-0.7275,-0.7276]},{"header":{"parameterUnit":"m.s-1","parameterCategory":1,"la1":30.2991,"la2":30.254,"lo1":-89.0895,"lo2":-89.0444,"dy":0.0017,"dx":0.0017,"nx":28,"ny":28,"refTime":"2024-06-02T21:00:00:Z","depth":0,"parameterNumber":3,"parameterNumberName":"V-component_of_WINDS"},"data":[0,0,0,0,0,0,0,0,0,0,0,0,0,0,0,0,0,0,0,0,0,0,0,0,0,0,0,0,0,0,0,0,0,0,0,0,0,0,0,0,0,0,0,0,0,0,0,0,0,0,0,0,0,0,0,0,0,0,2.8102,2.8102,0,2.8127,2.8127,2.8128,2.8091,2.8089,2.8088,2.8087,2.8111,2.8112,2.8114,0,0,0,0,0,0,0,0,0,0,0,0,0,2.802,2.8021,2.8102,2.8102,2.8103,2.8127,2.8127,2.8128,2.8091,2.8089,2.8088,2.8086,2.811,2.8112,2.8114,0,0,0,0,0,0,0,0,0,0,0,0,0,2.8051,2.8022,2.8102,2.8087,2.8086,2.8127,2.8127,2.8128,2.8091,2.8089,2.8087,2.8085,2.8109,2.8112,2.8115,2.8171,0,0,2.8123,2.8124,0,0,0,0,0,0,0,0,2.8049,2.8054,2.8089,2.8088,2.8087,2.8104,2.8107,2.8142,2.8092,2.8089,2.8087,2.8084,2.811,2.8112,2.8121,2.8172,2.8173,2.8123,2.8125,2.8126,2.8127,0,0,0,0,0,0,0,2.8047,2.8053,2.8112,2.8089,2.8088,2.8078,2.8081,2.8114,2.811,2.8089,2.8087,2.809,2.8109,2.8119,2.8122,2.8173,2.8123,2.8126,2.8127,2.8129,2.827,2.8272,0,0,0,0,0,0,2.8047,2.8051,2.8111,2.8113,2.8063,2.8082,2.8084,2.81,2.811,2.8109,2.8092,2.8088,2.8115,2.8118,2.8122,2.8187,2.8126,2.8129,2.813,2.8268,2.827,2.8272,0,0,0,0,0,0,2.8045,2.8053,2.811,2.8081,2.8088,2.8085,2.8103,2.8102,2.8112,2.8112,2.811,2.8103,2.8114,2.8118,2.8159,2.8188,2.813,2.8133,2.8265,2.8268,2.8271,2.8319,0,0,0,0,0,0,2.8043,2.8052,2.8074,2.8082,2.8089,2.8147,2.8105,2.8104,2.8117,2.8112,2.8121,2.8121,2.8112,2.8155,2.8162,2.8191,2.8135,2.8263,2.8267,2.827,2.8315,2.8323,2.8331,0,0,0,0,0,2.804,2.8086,2.8075,2.8083,2.8117,2.8149,2.8153,2.8142,2.8119,2.8141,2.814,2.8121,2.8184,2.8159,2.8167,2.8197,2.8261,2.8265,2.827,2.8311,2.8322,2.8331,0,0,0,0,0,0,2.8081,2.8087,2.8075,2.8125,2.8137,2.8142,2.8169,2.8154,2.8172,2.8167,2.8153,2.8155,2.8198,2.8202,2.8174,2.8251,2.8218,2.8225,2.8247,2.8257,2.8265,2.8263,2.8137,0,0,0,0,0,2.8096,2.8123,2.8126,2.817,2.8176,2.8172,2.8185,2.8176,2.8188,2.8192,2.8195,2.8206,2.8228,2.8243,2.8263,2.8316,2.8316,2.834,2.8348,2.8354,2.836,2.8386,2.8397,2.8288,2.8288,2.8288,0,0,2.8127,2.8134,2.8151,2.8178,2.8186,2.8212,2.8176,2.8206,2.8225,2.8196,2.8234,2.8237,2.8248,2.8295,2.8315,2.8299,2.839,2.836,2.8366,2.8367,2.8392,2.8403,2.8412,2.8291,2.8291,2.829,0,0,2.8197,2.8205,2.8242,2.8251,2.8263,2.826,2.8269,2.8277,2.8278,2.8316,2.8295,2.8317,2.8356,2.8365,2.8374,2.8447,2.8429,2.8455,2.8496,2.8522,2.853,2.8538,2.8563,2.8572,2.846,2.846,2.846,0,2.8233,2.8273,2.8262,2.8294,2.8306,2.8282,2.8318,2.8327,2.8346,2.8354,2.8336,2.8384,2.839,2.8437,2.8455,2.8464,2.8473,2.8453,2.853,2.8538,2.8544,2.8568,2.8578,2.8463,2.8463,2.8462,2.8462,0,2.8317,2.8345,2.8373,2.8392,2.8407,2.8441,2.8435,2.8451,2.8441,2.844,2.8479,2.8485,2.8506,2.8517,2.8508,2.8563,2.8552,2.8533,2.8499,2.8558,2.858,2.8589,2.8467,2.8466,2.8465,2.8465,0,0,2.8412,2.8425,2.8435,2.8443,2.8456,2.8477,2.8509,2.853,2.8544,2.8558,2.8584,2.8618,2.8599,2.861,2.8601,2.8625,2.8681,2.8601,2.8601,2.8615,2.8741,2.8755,2.8766,2.8669,2.8671,2.8672,2.874,0,2.848,2.8537,2.8528,2.8583,2.8608,2.8585,2.8613,2.8624,2.8623,2.8644,2.8643,2.8667,2.8641,2.8647,2.867,2.8669,2.8706,2.8664,2.8692,2.8693,2.8689,2.8778,2.8793,2.8856,2.8748,2.875,2.8751,0,2.8568,2.8585,2.8642,2.865,2.866,2.8686,2.8704,2.8724,2.8735,2.8733,2.8746,2.8732,2.8764,2.8731,2.8774,2.8746,2.8757,2.8758,2.8761,2.8762,2.8725,2.878,2.8876,2.8885,2.8764,2.8763,2.8762,0,2.863,2.8668,2.8706,2.8714,2.8725,2.8743,2.8748,2.8757,2.877,2.8786,2.8794,2.8814,2.8824,2.8839,2.8831,2.8808,2.8875,2.8842,2.8873,2.8873,2.8887,2.8886,2.8985,2.8896,2.8896,2.8896,2.8896,0,2.8707,2.8742,2.8734,2.8758,2.8797,2.8786,2.8825,2.8827,2.8835,2.8858,2.8841,2.8863,2.8851,2.8872,2.8866,2.8902,2.8907,2.8905,2.8903,2.8906,2.8906,2.8912,2.8907,2.8899,2.8898,2.8898,2.8897,0,2.8782,2.8779,2.8819,2.8826,2.8829,2.8857,2.8862,2.8884,2.8882,2.8912,2.8918,2.8915,2.8939,2.8933,2.8959,2.8955,2.8999,2.8992,2.8996,2.8993,2.9025,2.9022,2.913,2.9143,2.9048,2.9048,2.9049,0,2.8831,2.8858,2.8868,2.8882,2.8889,2.8912,2.8926,2.8916,2.8931,2.8945,2.8965,2.8987,2.9004,2.9043,2.9043,2.9062,2.9055,2.9091,2.9057,2.906,2.9054,2.9052,2.9054,2.9098,2.9099,2.91,2.91,0,2.8917,2.8914,2.8934,2.8954,2.8971,2.8986,2.8999,2.9012,2.9003,2.902,2.9045,2.9058,2.9084,2.9106,2.9124,2.9128,2.9113,2.9111,2.9119,2.9122,2.9123,2.9122,2.9013,2.9109,2.9108,2.9107,2.9107,2.9106,2.898,2.9002,2.9013,2.9036,2.9045,2.9057,2.9078,2.9079,2.9099,2.912,2.9114,2.9141,2.9151,2.9173,2.918,2.9201,2.9187,2.9199,2.9201,2.9204,2.9208,2.9121,2.9204,2.9204,2.9204,2.9203,2.9203,0,2.9064,2.907,2.9091,2.911,2.9128,2.9113,2.9127,2.9142,2.9167,2.9178,2.9195,2.9223,2.9244,2.9246,2.9265,2.9281,2.9275,2.9287,2.9285,2.9286,2.922,2.921,2.9292,2.9292,2.9292,2.9292,2.9292,2.9292,2.911,2.9147,2.9145,2.9186,2.9191,2.9218,2.9227,2.9238,2.9247,2.9278,2.9296,2.9297,2.9304,2.9324,2.9343,2.9342,2.935,2.9365,2.9362,2.9299,2.9291,2.9282,2.9273,2.9367,2.9367,2.9426,2.9426,2.9427]}]]